RH
17 15 14 15 13 12 12 15 30 42 69 80 94 98 94 86 66 73 78 68 73 77 67 47 31 47 46 68 74 69 43 45 45 42 39 44 48 48 48 52 48 53 52 45
18 17 16 16 12 14 27 54 45 34 62 92 99 92 94 89 81 76 89 82 83 83 71 60 42 55 65 81 78 86 76 74 68 58 53 47 47 55 59 61 55 51 57 46
20 18 18 14 13 23 74 86 86 83 72 76 97 99 97 86 79 76 83 90 94 81 79 67 52 44 40 65 69 73 73 77 74 64 68 67 70 71 68 62 69 66 64 62
21 19 65 15 21 33 70 88 95 89 98 65 98 98 98 92 89 94 84 91 94 96 90 78 68 59 46 42 52 55 56 62 61 60 53 55 60 60 53 53 50 62 52 41
56 21 77 15 26 42 81 89 99 100 78 73 95 95 95 91 89 84 85 94 96 96 88 73 68 73 65 57 56 67 86 62 55 47 38 38 36 38 43 38 39 45 29 29
66 79 73 19 30 52 84 79 91 100 92 85 89 82 74 93 99 92 86 95 96 89 84 96 80 76 73 64 54 52 80 70 71 67 54 54 55 27 31 21 17 24 24 17
75 60 23 17 29 59 80 86 99 99 94 90 80 80 97 90 80 88 94 96 96 92 95 93 96 87 68 66 65 60 72 99 92 84 80 72 31 20 20 30 21 16 17 21
20 17 18 20 30 51 84 90 99 98 93 86 83 82 84 98 97 94 91 94 95 96 97 94 87 88 84 58 55 63 55 79 84 84 89 56 28 26 27 24 17 25 34 57
96 78 68 46 51 43 60 87 90 99 98 87 86 92 93 93 94 97 92 96 95 97 97 99 88 85 85 86 74 61 68 67 85 99 80 76 45 38 37 47 38 46 47 46
96 96 88 42 40 47 78 82 97 99 97 89 92 93 88 91 96 94 94 96 97 97 97 98 91 93 94 83 86 100 82 83 88 99 92 70 45 43 60 58 53 53 57 45
98 97 96 86 29 59 89 94 98 98 97 93 92 86 92 94 97 96 90 97 96 98 99 97 94 89 75 76 88 94 89 98 95 98 98 88 41 59 57 56 49 49 52 54
97 96 100 93 66 99 98 97 97 98 97 96 94 94 90 97 94 96 94 87 83 87 95 95 95 86 78 74 77 66 86 68 69 72 59 37 54 61 68 56 44 38 44 56
96 97 100 100 99 96 96 98 97 98 98 92 97 92 80 92 93 94 98 85 94 96 95 96 92 86 80 74 69 66 69 59 62 59 56 46 46 57 61 56 45 36 38 58
96 97 96 97 97 96 96 96 96 96 95 97 89 82 82 83 95 92 85 95 96 96 96 94 98 92 82 77 69 65 62 68 69 67 67 63 63 58 55 67 74 72 73 72
96 95 95 96 96 96 97 97 95 96 96 95 91 84 86 80 84 97 88 94 93 94 97 96 97 90 92 89 82 76 70 68 70 76 76 71 66 66 68 62 54 45 65 71
96 95 94 94 96 97 97 97 95 96 96 96 96 87 79 83 76 73 71 78 84 96 100 96 94 94 97 97 92 85 75 66 68 69 68 80 80 73 67 62 51 68 70 74
98 96 97 97 97 97 95 96 80 87 95 96 95 78 73 70 94 84 86 94 96 96 98 97 97 96 92 97 89 71 78 83 75 60 63 77 77 78 72 67 75 70 82 81
88 97 96 97 98 98 97 94 80 91 96 97 94 83 67 69 76 77 89 99 98 96 96 96 97 90 97 91 75 81 85 73 63 56 61 74 77 75 86 85 68 69 87 94
94 92 98 97 97 97 94 97 88 93 95 97 88 73 71 97 80 79 75 87 97 96 96 97 94 97 94 87 81 81 85 74 69 63 78 99 96 82 79 77 70 68 81 92
98 99 97 98 97 96 94 97 98 96 98 95 81 75 81 96 93 96 98 94 96 94 91 97 93 98 82 88 80 73 70 73 82 87 100 100 94 83 84 94 95 88 94 94
98 96 92 82 95 97 96 92 85 88 95 87 71 64 67 76 96 96 91 89 96 94 95 100 97 97 99 85 80 89 89 92 100 100 100 100 100 100 94 96 100 100 99 98
76 73 88 94 92 86 88 89 94 95 87 90 86 76 75 85 96 97 100 92 86 99 99 100 90 79 80 78 85 87 88 91 96 98 98 99 99 98 98 97 97 96 98 99
66 81 89 86 87 93 94 100 100 94 100 100 81 96 96 98 95 96 96 100 100 98 100 97 83 74 80 78 83 88 92 93 96 96 96 96 96 96 96 96 97 96 98 99
84 75 75 78 82 86 94 92 93 88 92 95 96 97 96 95 93 90 89 94 94 97 92 87 80 84 84 89 93 99 96 95 95 95 95 96 96 96 96 96 96 96 96 96
72 73 75 85 89 91 88 90 92 95 94 91 100 95 92 93 93 83 93 95 97 92 87 83 90 94 94 97 98 96 95 95 95 96 96 96 95 96 96 95 96 96 96 96
69 81 97 99 100 100 100 97 98 100 92 87 95 82 95 95 93 94 92 95 94 91 94 97 98 98 98 98 96 95 95 95 96 96 96 96 96 96 96 96 96 96 97 97
89 99 99 97 98 96 98 98 98 99 98 97 96 94 91 92 91 96 90 92 89 94 98 96 97 97 96 96 95 95 95 96 96 96 96 96 96 97 96 97 96 94 86 73
Wind_Speed
34 32 30 28 26 23 24 25 25 18 14 22 27 26 26 30 21 23 29 26 24 16 11 9 11 4 5 3 8 8 20 13 19 22 9 10 10 10 12 17 9 5 4 11
34 32 30 28 26 23 21 22 26 22 15 26 27 30 24 31 30 26 16 19 20 18 22 17 7 2 3 3 1 5 7 5 7 6 10 19 14 9 8 8 12 13 6 6
34 32 29 28 26 23 21 21 22 21 24 29 27 26 31 34 34 30 27 26 15 16 10 6 6 7 10 8 7 1 1 3 3 5 4 6 6 8 5 4 3 6 13 15
33 31 28 29 28 24 25 28 30 25 13 29 33 31 22 28 31 23 23 25 28 12 9 11 13 11 10 15 11 10 7 5 5 8 9 10 10 8 10 13 12 10 11 18
32 31 28 30 30 26 31 34 34 29 30 25 18 30 32 38 31 27 26 25 20 21 30 28 26 21 17 12 8 10 7 5 7 8 9 12 16 15 15 16 20 25 22 26
31 29 31 32 32 31 36 36 36 32 32 31 34 32 30 34 27 30 29 28 22 17 12 13 17 17 20 18 15 10 9 9 6 5 8 8 14 19 20 21 21 24 26 28
33 34 34 35 33 36 38 33 37 38 41 41 39 35 26 29 35 34 28 23 22 20 19 10 8 13 20 22 18 19 12 9 8 5 4 5 9 12 16 15 19 23 29 26
32 33 33 35 36 38 38 35 37 40 43 43 44 41 36 32 29 28 31 27 19 10 10 8 5 8 11 17 21 19 23 17 6 4 8 15 22 13 14 14 19 17 18 17
32 33 34 36 36 38 40 36 36 42 43 49 42 39 37 31 34 33 31 23 18 15 14 12 5 5 4 3 5 24 20 21 17 8 4 5 6 9 6 7 14 7 22 23
29 31 33 37 38 39 38 35 39 44 46 48 39 35 37 35 31 33 31 25 27 25 18 15 12 9 7 4 5 7 21 20 23 12 9 12 12 3 4 1 5 19 18 25
26 33 37 39 40 38 37 38 42 44 47 46 38 36 38 25 29 33 25 24 27 22 25 20 14 11 12 14 9 7 14 15 15 17 10 12 4 7 4 9 15 17 22 25
29 29 30 35 35 33 37 43 41 39 41 37 38 36 23 24 24 25 31 26 17 21 18 18 13 14 11 13 9 15 14 19 16 18 13 9 6 8 16 22 25 26 25 25
26 22 25 30 33 32 34 40 38 35 39 35 35 31 23 29 21 21 25 22 28 23 19 15 13 13 12 16 20 16 16 18 26 24 28 25 25 28 30 32 35 36 27 27
24 22 25 28 29 30 33 36 36 34 34 31 16 27 26 15 24 23 23 26 23 28 23 26 25 17 13 16 16 17 14 17 23 30 29 26 25 29 26 17 19 23 25 24
17 21 23 28 29 30 31 30 34 35 34 11 25 11 18 20 26 27 22 20 18 18 25 27 20 28 19 17 18 19 20 21 24 29 28 29 29 28 27 26 28 31 29 26
23 23 22 21 24 27 28 27 28 27 31 25 16 16 9 25 32 31 26 30 29 29 33 30 30 28 19 16 23 26 29 28 27 27 29 31 36 36 38 35 33 27 28 30
24 26 27 27 22 30 35 25 31 26 23 23 19 18 19 6 24 26 29 30 30 30 32 33 24 16 29 26 25 29 23 21 24 27 25 22 28 32 30 29 23 24 27 27
24 28 28 28 25 27 35 12 17 25 23 21 12 8 11 23 23 29 30 29 31 17 23 18 13 32 21 22 34 34 32 27 27 27 31 31 30 29 27 23 25 23 26 27
27 33 33 30 29 28 27 13 11 7 24 14 10 12 11 10 22 24 25 30 21 16 18 19 11 16 22 28 32 32 30 31 28 31 29 29 29 26 31 33 31 32 31 29
39 42 38 35 32 24 25 24 17 8 19 20 18 15 14 12 22 24 24 22 18 9 21 19 25 26 29 30 32 34 33 34 28 22 24 25 30 32 29 30 29 30 30 29
44 29 31 36 39 27 11 10 9 9 7 15 22 20 18 16 25 26 21 15 12 10 11 14 8 18 28 25 25 29 34 31 29 27 21 16 18 20 24 25 24 23 24 25
37 36 37 28 19 11 7 11 8 7 8 7 10 16 19 16 22 16 18 13 13 8 16 12 7 15 17 22 22 21 22 22 22 22 22 22 25 24 22 20 20 18 17 19
34 34 25 15 5 5 7 10 9 8 9 12 10 13 14 17 14 7 8 7 7 9 12 7 10 15 17 16 17 19 19 18 18 14 13 13 14 14 13 12 12 11 11 11
18 11 8 5 4 5 7 13 14 11 11 16 15 13 9 12 6 6 5 7 8 7 5 7 10 12 12 11 12 12 11 10 6 3 3 2 1 1 2 5 8 8 6 7
6 7 5 6 8 14 15 14 12 12 17 18 16 13 8 13 5 5 5 8 6 8 8 10 12 10 8 6 4 3 2 5 9 12 12 12 13 12 12 14 14 13 13 11
3 4 14 17 14 16 16 15 13 14 15 16 14 10 4 6 3 6 5 7 5 7 10 12 11 11 11 13 15 17 18 17 16 15 14 14 14 13 12 11 9 8 7 5
7 12 16 13 12 12 13 12 15 16 17 18 8 8 6 6 5 6 7 6 8 13 15 17 20 21 22 21 19 17 15 13 12 10 9 7 6 7 7 6 6 7 8 9
Wind_Direction
259 257 259 256 256 253 253 259 262 267 229 223 224 238 243 252 253 238 243 254 272 278 290 311 338 327 5 348 56 109 210 233 242 251 220 173 147 199 236 234 234 239 251 242
255 252 252 250 248 245 245 249 257 250 224 232 230 237 251 251 254 248 237 240 258 276 287 293 276 250 213 26 110 76 125 168 151 140 210 228 225 213 199 243 247 242 241 265
250 248 246 245 240 232 234 241 247 247 226 230 236 239 247 247 254 257 252 247 255 252 263 246 246 245 241 231 260 286 164 158 94 188 141 174 194 200 232 293 266 265 263 280
246 243 240 237 233 221 223 226 236 233 237 235 232 237 242 251 247 248 251 253 241 231 227 246 270 288 255 234 241 240 247 217 243 273 289 296 286 276 282 290 288 271 294 299
247 241 237 230 227 215 219 226 232 241 239 240 245 238 246 245 243 244 249 251 250 248 249 253 268 265 257 270 192 199 199 209 209 235 247 266 277 278 283 286 286 285 293 289
244 239 235 228 224 213 220 225 230 237 244 243 242 244 247 240 247 256 255 256 254 253 248 247 239 244 244 237 223 201 196 193 209 237 218 236 260 267 271 282 282 277 279 299
241 239 235 228 224 219 222 223 227 233 246 244 246 245 248 245 251 250 256 247 249 248 238 223 245 261 251 229 235 238 212 187 208 186 147 234 254 262 267 263 277 291 296 297
244 240 238 233 224 220 223 223 221 240 246 244 246 248 248 251 246 247 252 250 259 218 207 260 252 244 248 244 232 232 219 217 222 231 210 282 276 267 249 269 292 288 308 325
245 241 233 228 226 223 221 223 223 235 244 248 247 248 248 255 242 234 243 241 243 215 226 241 231 226 225 219 182 219 214 220 214 167 207 239 146 152 283 267 293 358 329 325
244 243 239 233 227 223 220 224 223 233 241 248 247 243 247 238 241 236 238 229 230 225 212 229 229 239 228 234 187 176 197 208 215 217 223 263 268 255 287 207 335 322 328 323
242 248 241 235 227 221 216 222 227 229 237 243 245 249 245 239 232 219 230 204 208 215 220 224 223 225 225 229 212 200 187 183 204 221 238 267 211 141 168 293 297 319 315 319
245 239 231 224 219 214 215 224 225 228 235 241 243 238 242 234 234 239 234 223 223 221 211 212 209 217 211 217 216 224 219 212 207 213 226 263 254 277 293 292 297 302 306 312
231 221 214 215 213 204 202 217 222 220 226 237 240 238 245 239 243 206 226 220 209 226 230 224 232 233 243 226 233 234 229 239 240 250 257 267 266 273 283 286 286 291 291 299
225 218 210 202 203 205 207 212 213 215 215 218 244 227 227 212 215 226 223 229 227 227 231 227 233 228 235 244 247 246 243 244 250 259 266 269 270 276 279 289 300 306 294 301
205 202 204 204 201 203 200 203 210 209 204 206 215 159 188 212 215 196 196 202 218 228 234 232 232 234 235 239 242 243 241 247 249 260 263 267 270 270 270 283 289 296 298 297
207 200 193 185 189 193 191 200 212 204 209 206 140 185 225 223 221 228 238 229 228 225 236 240 241 239 228 237 245 248 252 258 262 267 275 271 272 273 277 285 292 291 288 293
197 199 196 186 182 186 190 202 219 194 199 209 230 241 223 230 209 213 220 220 221 228 233 239 238 247 238 243 249 260 257 260 277 282 286 278 281 278 279 279 282 293 290 293
187 180 180 176 178 183 190 114 201 209 190 203 192 189 202 213 220 213 214 216 221 216 222 231 245 238 228 244 253 256 263 274 273 277 282 283 279 284 276 275 288 292 289 290
164 163 164 165 175 182 193 146 139 162 191 201 201 188 211 218 213 218 219 220 229 227 235 254 245 217 217 239 251 263 268 272 276 281 272 263 268 265 276 282 282 285 286 287
153 151 154 162 175 179 174 136 141 165 200 206 212 210 228 210 203 205 202 212 219 218 236 228 245 247 240 245 256 265 272 271 277 272 257 258 264 271 279 282 277 278 282 289
142 136 128 154 141 134 145 132 171 190 205 221 226 226 244 249 203 194 190 192 198 207 211 202 222 227 235 240 257 260 263 268 268 269 269 267 269 272 269 280 277 277 279 281
147 138 133 141 143 135 148 170 170 182 199 207 215 231 243 218 196 167 170 168 175 196 194 200 229 241 240 241 254 262 265 265 270 279 274 268 269 268 269 265 269 275 284 287
134 130 132 133 134 144 150 162 169 189 193 190 222 182 166 149 201 125 138 152 177 157 181 212 220 230 230 247 255 258 259 264 270 275 273 264 259 259 266 270 271 272 277 273
137 129 136 173 173 178 159 165 172 185 176 165 173 151 147 153 127 121 120 147 155 185 203 216 220 219 231 243 248 251 258 259 271 298 302 312 15 46 111 109 98 89 98 97
144 146 157 162 145 141 148 159 168 170 168 165 166 164 161 174 154 167 151 170 188 200 202 204 201 204 208 213 216 214 158 112 102 94 91 90 87 88 93 92 90 86 78 79
84 100 123 135 133 140 145 152 155 158 173 177 173 177 178 173 183 176 184 179 198 197 175 165 161 153 140 127 121 115 110 106 103 102 99 96 94 91 82 75 78 78 71 53
103 118 125 125 133 148 157 157 166 172 174 170 165 184 190 162 196 179 179 182 158 150 144 138 129 126 123 122 120 116 113 111 109 102 97 92 78 62 50 31 10 2 356 351